TimeEDT,TemperatureF,Dew PointF,Humidity,Sea Level PressureIn,VisibilityMPH,Wind Direction,Wind SpeedMPH,Gust SpeedMPH,PrecipitationIn,Events,Conditions,WindDirDegrees,DateUTC
12:07 AM,71.6,64.4,78,29.48,10.0,WSW,9.2,23.0,N/A,,Mostly Cloudy,250,2013-07-20 04:07:00
12:51 AM,71.6,64.4,78,29.48,10.0,WSW,12.7,20.7,N/A,,Overcast,240,2013-07-20 04:51:00
12:53 AM,71.1,64.9,81,29.46,10.0,WSW,12.7,20.7,N/A,,Overcast,250,2013-07-20 04:53:00
1:53 AM,70.0,64.9,84,29.46,10.0,WSW,10.4,-,N/A,,Mostly Cloudy,250,2013-07-20 05:53:00
2:01 AM,69.8,64.4,83,29.48,10.0,WSW,9.2,-,N/A,,Mostly Cloudy,250,2013-07-20 06:01:00
2:10 AM,69.8,64.4,83,29.47,10.0,WSW,10.4,-,N/A,,Scattered Clouds,240,2013-07-20 06:10:00
2:33 AM,69.8,64.4,83,29.47,10.0,WSW,8.1,-,N/A,,Mostly Cloudy,240,2013-07-20 06:33:00
2:53 AM,70.0,64.0,81,29.47,10.0,West,11.5,-,N/A,,Overcast,260,2013-07-20 06:53:00
3:53 AM,70.0,64.0,81,29.48,10.0,WSW,15.0,23.0,N/A,,Mostly Cloudy,250,2013-07-20 07:53:00
4:03 AM,69.8,64.4,83,29.50,10.0,WSW,10.4,-,N/A,,Scattered Clouds,240,2013-07-20 08:03:00
4:53 AM,68.0,64.0,87,29.48,10.0,SW,9.2,-,N/A,,Clear,230,2013-07-20 08:53:00
5:53 AM,69.1,64.0,84,29.50,10.0,West,6.9,-,N/A,,Partly Cloudy,260,2013-07-20 09:53:00
6:53 AM,71.1,64.9,81,29.52,10.0,WSW,8.1,-,0.00,,Mostly Cloudy,250,2013-07-20 10:53:00
7:53 AM,72.0,64.9,78,29.53,10.0,West,10.4,-,N/A,,Partly Cloudy,260,2013-07-20 11:53:00
8:53 AM,73.0,64.0,73,29.54,10.0,WSW,12.7,18.4,N/A,,Mostly Cloudy,240,2013-07-20 12:53:00
9:42 AM,78.8,64.4,61,29.56,10.0,WSW,11.5,19.6,N/A,,Mostly Cloudy,250,2013-07-20 13:42:00
9:51 AM,77.0,64.4,65,29.56,10.0,SW,10.4,20.7,N/A,,Mostly Cloudy,230,2013-07-20 13:51:00
9:53 AM,77.0,64.0,64,29.54,10.0,WSW,15.0,21.9,N/A,,Mostly Cloudy,250,2013-07-20 13:53:00
10:53 AM,75.9,61.0,60,29.54,10.0,WSW,16.1,19.6,N/A,,Scattered Clouds,240,2013-07-20 14:53:00
11:53 AM,75.0,62.1,64,29.54,10.0,WSW,10.4,-,N/A,,Clear,250,2013-07-20 15:53:00
12:53 PM,75.9,63.0,64,29.53,10.0,WSW,10.4,-,N/A,,Clear,250,2013-07-20 16:53:00
1:53 PM,75.0,63.0,66,29.52,10.0,SW,11.5,-,N/A,,Mostly Cloudy,220,2013-07-20 17:53:00
2:53 PM,73.9,64.0,71,29.50,10.0,SSW,9.2,-,0.00,Rain,Light Rain,210,2013-07-20 18:53:00
3:34 PM,73.4,64.4,73,29.52,10.0,SSW,13.8,23.0,0.00,,Mostly Cloudy,200,2013-07-20 19:34:00
3:46 PM,71.6,64.4,78,29.53,10.0,SSW,12.7,21.9,0.00,,Overcast,210,2013-07-20 19:46:00
3:53 PM,72.0,64.0,76,29.51,10.0,SSW,12.7,20.7,0.00,,Overcast,210,2013-07-20 19:53:00
4:53 PM,73.0,64.9,76,29.48,10.0,SW,9.2,18.4,0.00,,Mostly Cloudy,220,2013-07-20 20:53:00
5:53 PM,73.0,64.9,76,29.49,10.0,SSW,6.9,-,N/A,,Mostly Cloudy,210,2013-07-20 21:53:00
6:53 PM,72.0,64.0,76,29.53,10.0,WNW,11.5,26.5,N/A,,Mostly Cloudy,300,2013-07-20 22:53:00
7:53 PM,64.9,46.9,52,29.60,10.0,NW,13.8,26.5,N/A,,Mostly Cloudy,310,2013-07-20 23:53:00
8:53 PM,61.0,50.0,67,29.64,10.0,NW,15.0,24.2,N/A,,Partly Cloudy,320,2013-07-21 00:53:00
9:53 PM,57.9,50.0,75,29.68,10.0,WNW,11.5,-,N/A,,Clear,300,2013-07-21 01:53:00
10:53 PM,57.9,48.0,70,29.70,10.0,NW,12.7,-,N/A,,Clear,310,2013-07-21 02:53:00
11:53 PM,55.9,46.9,72,29.73,10.0,NW,13.8,23.0,N/A,,Clear,320,2013-07-21 03:53:00